Location: Unspecified
(0.0000°N, 0.0000°E)
Time: 17:56:22
(UTC+00:00)

Courier 1B - Pass Details

Date: 02 October 2023
Orbit: 962 x 1208 km, 28.3° (Epoch: 28 November)

Event Time Altitude Azimuth Distance (km) Brightness Sun altitude
Rises 05:20:34 0° 222° (SW) 3,639 10.1 -7.2°
Reaches altitude 10° 05:23:31 10° 211° (SSW) 2,702 9.6 -6.5°
Maximum altitude 05:29:08 30° 151° (SSE) 1,681 9.2 -5.1°
Drops below altitude 10° 05:34:57 10° 92° (E) 2,798 12.0 -3.6°
Sets 05:38:03 0° 81° (E) 3,788 12.7 -2.9°
